KE5FMN Weather Reports


time (UTC)temp
F
wind
direction
speed
knots
gust
knots
rain 1hr
in
rain 24hr
in
rain mn
in
humidity
%
barometer
mb
20260505024552 68 0 0.0 0.9 0.00 0.00 0.00 69 1008.9
20260505023108 68 145 0.0 0.9 0.00 0.00 0.00 67 1008.7
20260505021552 69 155 0.0 0.9 0.00 0.00 0.00 66 1008.7
20260505020054 69 150 0.0 0.9 0.00 0.00 0.00 65 1008.4
20260505014601 70 142 0.0 0.9 0.00 0.00 0.00 64 1008.0
20260505013106 70 148 0.0 1.7 0.00 0.00 0.00 63 1007.9
20260505011554 71 0 0.0 0.9 0.00 0.00 0.00 63 1007.6
20260505010052 72 0 0.0 0.9 0.00 0.00 0.00 61 1007.4
20260505004557 73 146 0.0 1.7 0.00 0.00 0.00 60 1007.5
20260505003051 74 143 0.0 3.5 0.00 0.00 0.00 58 1007.4
20260505001555 74 210 1.7 3.5 0.00 0.00 0.00 57 1007.5
20260505000112 75 169 0.9 3.5 0.00 0.00 0.00 56 1007.6
20260504234554 76 179 0.9 6.1 0.00 0.00 0.00 55 1007.7
20260504233055 76 134 1.7 6.1 0.00 0.00 0.00 53 1007.8
20260504231553 76 181 2.6 9.6 0.00 0.00 0.00 52 1008.1
20260504230105 77 154 1.7 7.0 0.00 0.00 0.00 51 1008.2
20260504224552 78 130 1.7 7.8 0.00 0.00 0.00 51 1008.1
20260504223104 78 0 0.9 7.8 0.00 0.00 0.00 52 1008.1
20260504221603 78 165 4.3 7.8 0.00 0.00 0.00 50 1008.3
20260504220059 79 146 3.5 9.6 0.00 0.00 0.00 48 1008.6
20260504214556 79 167 2.6 9.6 0.00 0.00 0.00 48 1008.4
20260504213054 80 166 0.9 7.0 0.00 0.00 0.00 51 1008.6
20260504211550 80 175 4.3 8.7 0.00 0.00 0.00 47 1008.8
20260504210055 80 211 5.2 8.7 0.00 0.00 0.00 48 1008.9
20260504204600 81 207 0.9 7.8 0.00 0.00 0.00 47 1009.0
20260504203106 81 139 2.6 8.7 0.00 0.00 0.00 46 1009.3
20260504201551 81 212 2.6 13.0 0.00 0.00 0.00 48 1009.4
20260504200052 81 155 3.5 9.6 0.00 0.00 0.00 47 1009.8
20260504194549 81 160 4.3 8.7 0.00 0.00 0.00 47 1009.9
20260504193054 80 156 3.5 10.4 0.00 0.00 0.00 47 1009.8
20260504191602 80 148 3.5 11.3 0.00 0.00 0.00 48 1010.1
20260504190100 81 161 3.5 7.8 0.00 0.00 0.00 46 1010.2
20260504184551 80 160 3.5 8.7 0.00 0.00 0.00 49 1010.2
20260504183059 80 201 2.6 7.8 0.00 0.00 0.00 49 1010.3
20260504181558 80 140 2.6 6.1 0.00 0.00 0.00 48 1010.3
20260504174556 79 168 4.3 9.6 0.00 0.00 0.00 47 1011.0
20260504173052 79 169 2.6 8.7 0.00 0.00 0.00 47 1011.2
20260504171555 79 243 1.7 8.7 0.00 0.00 0.00 48 1011.3
20260504081555 61 0 0.0 0.0 0.00 0.00 0.00 77 1012.5
20260504050107 65 165 0.0 1.7 0.00 0.00 0.00 69 1013.9
20260504044600 65 162 0.9 2.6 0.00 0.00 0.00 68 1013.9
20260504043055 65 167 1.7 2.6 0.00 0.00 0.00 68 1014.0
20260504041602 65 169 0.0 1.7 0.00 0.00 0.00 69 1014.0
20260504034603 64 178 0.0 0.9 0.00 0.00 0.00 69 1014.3
20260504033053 64 0 0.0 0.9 0.00 0.00 0.00 69 1014.2
20260504031558 64 0 0.0 0.0 0.00 0.00 0.00 69 1014.3
20260504030058 64 0 0.0 0.0 0.00 0.00 0.00 69 1014.3